Weather History for Ogallala, NE

Change the Weather History Date:

Friday, September 6, 2013

  Actual Average Record
Temperature  
Mean Temperature 82 °F -  
Max Temperature 104 °F 85 °F 104 °F (2013)
Min Temperature 60 °F 53 °F 35 °F (1956)
Cooling Degree Days 17    
Growing Degree Days 32 (Base 50)    
Moisture  
Dew Point 50 °F    
Average Humidity 37    
Maximum Humidity 74    
Minimum Humidity 13    
Precipitation  
Precipitation 0.00 in - - ()
Sea Level Pressure  
Sea Level Pressure 30.01 in    
Wind  
Wind Speed 3 mph (SSW)    
Max Wind Speed 10 mph    
Max Gust Speed 18 mph    
Visibility 10 miles    
Events Thunderstorm    
Averages and records for this station are not official NWS values.
T = Trace of Precipitation, MM = Missing Value Source: NWS Daily Summary

Daily Weather History Graph

Daily Weather History Graph

Search for Another Location

Airport:

Trip Planner

Search our weather history database for the weather conditions in past years. The results will help you decide how hot, cold, wet, or windy it might be!

Date:

Astronomy

Sep. 06, 2013 Rise Set
Actual Time 6:18 AM MDT 7:10 PM MDT
Civil Twilight 5:50 AM MDT 7:38 PM MDT
Nautical Twilight 5:17 AM MDT 8:12 PM MDT
Astronomical Twilight 4:43 AM MDT 8:46 PM MDT
Moon 7:34 AM MDT (9/6) 7:34 PM MDT (9/6)
Length of Visible Light 13h 48m
Length of Day
12h 52m
New Moon, 2% of the Moon is Illuminated
Sep 6
New Moon
Sep 12
First Quarter
Sep 19
Full
Sep 26
Last Quarter
Oct 4
New

Hourly Weather History & Observations

Time (MDT) Temp. Heat Index Dew Point Humidity Pressure Visibility Wind Dir Wind Speed Gust Speed Precip Events Conditions
12:15 AM 74.7 °F - 50.7 °F 43% 30.06 in 10.0 mi Calm Calm - N/A   Clear
12:35 AM 73.6 °F - 51.3 °F 45% 30.06 in 10.0 mi Calm Calm - N/A   Clear
12:55 AM 73.6 °F - 50.9 °F 45% 30.07 in 10.0 mi ESE 3.5 mph - N/A   Clear
1:15 AM 72.7 °F - 51.4 °F 47% 30.06 in 10.0 mi SE 6.9 mph - N/A   Clear
1:35 AM 71.1 °F - 51.8 °F 50% 30.07 in 10.0 mi ENE 3.5 mph - N/A   Clear
1:55 AM 73.2 °F - 50.2 °F 44% 30.07 in 10.0 mi Calm Calm - N/A   Clear
2:15 AM 72.0 °F - 50.5 °F 47% 30.07 in 10.0 mi South 8.1 mph - N/A   Clear
2:35 AM 67.8 °F - 52.2 °F 57% 30.07 in 10.0 mi Calm Calm - N/A   Clear
2:55 AM 67.3 °F - 52.3 °F 59% 30.06 in 10.0 mi South 4.6 mph - N/A   Clear
3:15 AM 67.6 °F - 51.3 °F 56% 30.06 in 10.0 mi Calm Calm - N/A   Clear
3:35 AM 65.3 °F - 52.3 °F 63% 30.06 in 10.0 mi Calm Calm - N/A   Clear
3:55 AM 64.4 °F - 52.0 °F 64% 30.05 in 10.0 mi SSE 4.6 mph - N/A   Clear
4:15 AM 65.3 °F - 51.6 °F 61% 30.04 in 10.0 mi Calm Calm - N/A   Clear
4:35 AM 64.6 °F - 51.1 °F 62% 30.04 in 10.0 mi Calm Calm - N/A   Clear
4:55 AM 63.9 °F - 51.8 °F 65% 30.05 in 10.0 mi West 3.5 mph - N/A   Clear
5:15 AM 65.3 °F - 51.3 °F 60% 30.04 in 10.0 mi SW 4.6 mph - N/A   Clear
5:35 AM 62.1 °F - 52.9 °F 72% 30.05 in 10.0 mi Calm Calm - N/A   Clear
5:55 AM 62.4 °F - 52.7 °F 70% 30.05 in 10.0 mi Calm Calm - N/A   Clear
6:15 AM 60.4 °F - 52.2 °F 74% 30.05 in 10.0 mi Calm Calm - N/A   Clear
6:35 AM 61.9 °F - 52.7 °F 72% 30.04 in 10.0 mi Calm Calm - N/A   Clear
6:55 AM 62.8 °F - 52.2 °F 68% 30.05 in 10.0 mi Calm Calm - N/A   Clear
7:15 AM 65.3 °F - 53.1 °F 65% 30.05 in 10.0 mi Calm Calm - N/A   Clear
7:35 AM 66.4 °F - 52.9 °F 62% 30.05 in 10.0 mi Calm Calm - N/A   Clear
7:55 AM 68.7 °F - 53.1 °F 57% 30.06 in 10.0 mi Calm Calm - N/A   Clear
8:15 AM 70.0 °F - 53.6 °F 56% 30.06 in 10.0 mi Calm Calm - N/A   Clear
8:35 AM 73.2 °F - 53.8 °F 50% 30.06 in 10.0 mi Calm Calm - N/A   Clear
8:55 AM 75.2 °F - 54.5 °F 48% 30.06 in 10.0 mi Calm Calm - N/A   Clear
9:15 AM 77.9 °F - 53.6 °F 43% 30.05 in 10.0 mi South 4.6 mph - N/A   Clear
9:35 AM 81.1 °F 80.7 °F 53.8 °F 39% 30.05 in 10.0 mi Calm Calm - N/A   Clear
9:55 AM 82.9 °F 82.1 °F 55.9 °F 39% 30.05 in 10.0 mi WSW 4.6 mph - N/A   Clear
10:15 AM 86.5 °F - 51.8 °F 30% 30.05 in 10.0 mi WSW 5.8 mph - N/A   Clear
10:35 AM 89.1 °F 87.3 °F 55.4 °F 32% 30.05 in 10.0 mi SW 4.6 mph - N/A   Clear
10:55 AM 91.0 °F 89.2 °F 55.8 °F 30% 30.04 in 10.0 mi Calm Calm - N/A   Clear
11:15 AM 93.4 °F 91.3 °F 54.9 °F 27% 30.04 in 10.0 mi SSW 4.6 mph - N/A   Clear
11:35 AM 95.0 °F 92.5 °F 53.4 °F 24% 30.03 in 10.0 mi South 5.8 mph - N/A   Clear
11:55 AM 96.4 °F 94.6 °F 54.7 °F 25% 30.02 in 10.0 mi SW 5.8 mph - N/A   Clear
12:15 PM 97.9 °F - 52.5 °F 22% 30.02 in 10.0 mi SSW 6.9 mph - N/A   Clear
12:35 PM 99.0 °F - 49.6 °F 19% 30.01 in 10.0 mi SSW 5.8 mph - N/A   Clear
12:55 PM 100.9 °F - 48.2 °F 17% 30.00 in 10.0 mi South 9.2 mph - N/A   Clear
1:15 PM 102.2 °F - 46.6 °F 15% 30.00 in 10.0 mi SSW 10.4 mph - N/A   Clear
1:35 PM 103.1 °F - 45.5 °F 14% 29.99 in 10.0 mi South 10.4 mph - N/A   Clear
1:55 PM 102.7 °F - 44.2 °F 14% 29.99 in 10.0 mi SSW 9.2 mph - N/A   Clear
2:15 PM 103.8 °F - 43.7 °F 13% 29.98 in 10.0 mi SSW 10.4 mph 16.1 mph N/A   Clear
2:35 PM 103.3 °F - 44.2 °F 13% 29.97 in 10.0 mi South 10.4 mph 18.4 mph N/A   Clear
2:55 PM 102.9 °F - 45.1 °F 14% 29.97 in 10.0 mi SSW 8.1 mph - N/A   Clear
3:15 PM 103.8 °F - 44.6 °F 13% 29.96 in 10.0 mi South 10.4 mph - N/A   Clear
3:35 PM 104.2 °F - 43.2 °F 13% 29.96 in 10.0 mi South 5.8 mph - N/A   Clear
3:55 PM 104.5 °F - 44.4 °F 13% 29.95 in 10.0 mi South 9.2 mph - N/A   Clear
4:15 PM 104.0 °F - 44.1 °F 13% 29.94 in 10.0 mi SSW 9.2 mph - N/A   Clear
4:35 PM 103.6 °F - 44.2 °F 13% 29.94 in 10.0 mi SSW 10.4 mph - N/A   Clear
4:55 PM 103.3 °F - 43.3 °F 13% 29.93 in 10.0 mi South 9.2 mph - N/A   Clear
5:15 PM 101.7 °F - 43.2 °F 14% 29.93 in 10.0 mi SSW 6.9 mph - N/A   Clear
5:35 PM 100.0 °F - 42.8 °F 14% 29.94 in 10.0 mi South 4.6 mph - N/A   Clear
5:55 PM 95.9 °F - 47.3 °F 19% 29.93 in 10.0 mi South 3.5 mph - N/A   Clear
6:15 PM 95.9 °F - 45.5 °F 18% 29.94 in 10.0 mi South 3.5 mph - N/A   Clear
6:35 PM 93.7 °F - 47.7 °F 21% 29.94 in 10.0 mi South 3.5 mph - N/A   Clear
6:55 PM 90.5 °F - 48.9 °F 24% 29.94 in 10.0 mi South 3.5 mph - N/A   Clear
7:15 PM 89.6 °F - 48.2 °F 24% 29.94 in 10.0 mi North 10.4 mph - N/A   Clear
7:35 PM 90.5 °F - 49.8 °F 25% 29.94 in 10.0 mi North 8.1 mph 12.7 mph N/A   Clear
7:55 PM 90.0 °F - 48.7 °F 24% 29.95 in 10.0 mi Calm Calm - N/A Thunderstorm Clear
8:15 PM 90.0 °F - 48.6 °F 24% 29.96 in 10.0 mi NNE 9.2 mph - N/A   Clear
8:35 PM 88.0 °F - 49.5 °F 26% 29.97 in 10.0 mi NE 5.8 mph - N/A   Clear
8:55 PM 86.7 °F - 50.0 °F 28% 29.98 in 10.0 mi SE 5.8 mph - N/A   Clear
9:35 PM 84.2 °F - 49.6 °F 30% 29.98 in 10.0 mi ENE 4.6 mph - N/A   Clear
9:55 PM 83.8 °F - 50.5 °F 31% 29.99 in 10.0 mi West 3.5 mph - N/A   Clear
10:15 PM 82.8 °F - 48.0 °F 30% 29.99 in 10.0 mi Calm Calm - N/A   Clear
10:35 PM 81.0 °F - 47.7 °F 31% 29.99 in 10.0 mi Calm Calm - N/A   Clear
10:55 PM 77.2 °F - 50.4 °F 39% 30.00 in 10.0 mi SW 4.6 mph - N/A   Clear
11:15 PM 74.5 °F - 52.0 °F 45% 29.99 in 10.0 mi NW 5.8 mph - N/A   Clear
11:35 PM 72.5 °F - 52.7 °F 50% 30.00 in 10.0 mi South 3.5 mph - N/A   Clear
11:55 PM 79.0 °F - 55.6 °F 44% 30.00 in 10.0 mi NNW 6.9 mph - N/A   Clear